User: anonymous   Login
Location: Caltech
(34.1382°N, 118.1253°W)
Time: 04:49:10
(UTC-08:00)
Language:

Meteor 1-11 Rocket - Orbit

View from above orbital plane
View from above orbital plane
View from above satellite
View from above satellite

Ground track
Ground track

The orbit data is extracted from the following two-line orbital elements,

1 05918U 72022B   17016.19190433 -.00000104  00000-0 -70128-4 0  9990
2 05918  81.2382 112.9158 0059156  35.1870 325.3181 14.05815242296648
Epoch (UTC): 16 January 2017 04:36:20
Eccentricity: 0.0059156
inclination: 81.2382°
perigee height: 831 km
apogee height: 916 km
right ascension of ascending node: 112.9158°
argument of perigee: 35.1870°
revolutions per day: 14.05815242
mean anomaly at epoch: 325.3181°
orbit number at epoch: 29664

The dashed part of the orbit path shows where the satellite is in the earth's shadow,  

DLR